Time,TemperatureF,DewpointF,PressureIn,WindDirection,WindDirectionDegrees,WindSpeedMPH,WindSpeedGustMPH,Humidity,HourlyPrecipIn,Conditions,Clouds,dailyrainin,SoftwareType,DateUTC
2013-06-29 00:01:00,65.0,0.0,29.85,WNW,292,0.0,0.0,0,0.00,,,0.00,Weather View 32 v70,2013-06-29 07:01:00,
2013-06-29 00:06:00,64.0,0.0,29.86,West,270,0.0,0.0,0,0.00,,,0.00,Weather View 32 v70,2013-06-29 07:06:00,
2013-06-29 00:11:00,64.0,0.0,29.85,West,270,0.0,0.0,0,0.00,,,0.00,Weather View 32 v70,2013-06-29 07:11:00,
2013-06-29 00:16:00,64.0,0.0,29.85,NW,315,0.0,0.0,0,0.00,,,0.00,Weather View 32 v70,2013-06-29 07:16:00,
2013-06-29 00:21:00,64.0,0.0,29.85,NW,315,0.0,0.0,0,0.00,,,0.00,Weather View 32 v70,2013-06-29 07:21:00,
2013-06-29 00:26:00,64.0,0.0,29.85,WNW,292,0.0,0.0,0,0.00,,,0.00,Weather View 32 v70,2013-06-29 07:26:00,
2013-06-29 00:31:00,64.0,0.0,29.85,WNW,292,0.0,0.0,0,0.00,,,0.00,Weather View 32 v70,2013-06-29 07:31:00,
2013-06-29 00:36:00,64.0,0.0,29.85,WNW,292,0.0,0.0,0,0.00,,,0.00,Weather View 32 v70,2013-06-29 07:36:00,
2013-06-29 00:41:00,64.0,0.0,29.85,NW,315,0.0,0.0,0,0.00,,,0.00,Weather View 32 v70,2013-06-29 07:41:00,
2013-06-29 00:46:00,64.0,0.0,29.85,WNW,292,0.0,0.0,0,0.00,,,0.00,Weather View 32 v70,2013-06-29 07:46:00,
2013-06-29 00:51:00,64.0,0.0,29.85,West,270,0.0,0.0,0,0.00,,,0.00,Weather View 32 v70,2013-06-29 07:51:00,
2013-06-29 00:56:00,64.0,0.0,29.85,WNW,292,0.0,0.0,0,0.00,,,0.00,Weather View 32 v70,2013-06-29 07:56:00,
2013-06-29 01:01:00,64.0,0.0,29.85,WNW,292,0.0,0.0,0,0.00,,,0.00,Weather View 32 v70,2013-06-29 08:01:00,
2013-06-29 01:06:00,64.0,0.0,29.85,NW,315,0.0,0.0,0,0.00,,,0.00,Weather View 32 v70,2013-06-29 08:06:00,
2013-06-29 01:11:00,64.0,0.0,29.85,WNW,292,0.0,0.0,0,0.00,,,0.00,Weather View 32 v70,2013-06-29 08:11:00,
2013-06-29 01:16:00,64.0,0.0,29.85,WNW,292,0.0,0.0,0,0.00,,,0.00,Weather View 32 v70,2013-06-29 08:16:00,
2013-06-29 01:21:00,64.0,0.0,29.85,WNW,292,0.0,0.0,0,0.00,,,0.00,Weather View 32 v70,2013-06-29 08:21:00,
2013-06-29 01:26:00,64.0,0.0,29.85,WNW,292,0.0,0.0,0,0.00,,,0.00,Weather View 32 v70,2013-06-29 08:26:00,
2013-06-29 01:31:00,64.0,0.0,29.85,WNW,292,0.0,0.0,0,0.00,,,0.00,Weather View 32 v70,2013-06-29 08:31:00,
2013-06-29 01:36:00,63.0,0.0,29.85,WNW,292,0.0,0.0,0,0.00,,,0.00,Weather View 32 v70,2013-06-29 08:36:00,
2013-06-29 01:41:00,63.0,0.0,29.85,WNW,292,0.0,0.0,0,0.00,,,0.00,Weather View 32 v70,2013-06-29 08:41:00,
2013-06-29 01:46:00,63.0,0.0,29.85,NW,315,0.0,0.0,0,0.00,,,0.00,Weather View 32 v70,2013-06-29 08:46:00,
2013-06-29 01:51:00,63.0,0.0,29.85,NW,315,0.0,0.0,0,0.00,,,0.00,Weather View 32 v70,2013-06-29 08:51:00,
2013-06-29 01:56:00,63.0,0.0,29.85,NW,315,0.0,0.0,0,0.00,,,0.00,Weather View 32 v70,2013-06-29 08:56:00,
2013-06-29 02:01:00,63.0,0.0,29.85,NW,315,0.0,0.0,0,0.00,,,0.00,Weather View 32 v70,2013-06-29 09:01:00,
2013-06-29 02:06:00,63.0,0.0,29.85,NW,315,0.0,0.0,0,0.00,,,0.00,Weather View 32 v70,2013-06-29 09:06:00,
2013-06-29 02:11:00,63.0,0.0,29.85,WNW,292,0.0,0.0,0,0.00,,,0.00,Weather View 32 v70,2013-06-29 09:11:00,
2013-06-29 02:16:00,63.0,0.0,29.85,WNW,292,0.0,0.0,0,0.00,,,0.00,Weather View 32 v70,2013-06-29 09:16:00,
2013-06-29 02:21:00,63.0,0.0,29.85,WNW,292,0.0,0.0,0,0.00,,,0.00,Weather View 32 v70,2013-06-29 09:21:00,
2013-06-29 02:26:00,63.0,0.0,29.85,NW,315,0.0,0.0,0,0.00,,,0.00,Weather View 32 v70,2013-06-29 09:26:00,
2013-06-29 02:31:00,63.0,0.0,29.85,NW,315,0.0,0.0,0,0.00,,,0.00,Weather View 32 v70,2013-06-29 09:31:00,
2013-06-29 02:36:00,63.0,0.0,29.85,NW,315,0.0,0.0,0,0.00,,,0.00,Weather View 32 v70,2013-06-29 09:36:00,
2013-06-29 02:41:00,63.0,0.0,29.85,WNW,292,0.0,0.0,0,0.00,,,0.00,Weather View 32 v70,2013-06-29 09:41:00,
2013-06-29 02:46:00,63.0,0.0,29.85,NW,315,0.0,0.0,0,0.00,,,0.00,Weather View 32 v70,2013-06-29 09:46:00,
2013-06-29 02:51:00,63.0,0.0,29.85,WNW,292,0.0,0.0,0,0.00,,,0.00,Weather View 32 v70,2013-06-29 09:51:00,
2013-06-29 02:56:00,63.0,0.0,29.85,WNW,292,0.0,0.0,0,0.00,,,0.00,Weather View 32 v70,2013-06-29 09:56:00,
2013-06-29 03:01:00,63.0,0.0,29.85,WNW,292,0.0,0.0,0,0.00,,,0.00,Weather View 32 v70,2013-06-29 10:01:00,
2013-06-29 03:06:00,63.0,0.0,29.85,NW,315,0.0,0.0,0,0.00,,,0.00,Weather View 32 v70,2013-06-29 10:06:00,
2013-06-29 03:11:00,63.0,0.0,29.85,WNW,292,0.0,0.0,0,0.00,,,0.00,Weather View 32 v70,2013-06-29 10:11:00,
2013-06-29 03:16:00,63.0,0.0,29.85,NW,315,0.0,0.0,0,0.00,,,0.00,Weather View 32 v70,2013-06-29 10:16:00,
2013-06-29 03:21:00,63.0,0.0,29.85,NW,315,0.0,0.0,0,0.00,,,0.00,Weather View 32 v70,2013-06-29 10:21:00,
2013-06-29 03:26:00,63.0,0.0,29.85,WNW,292,0.0,0.0,0,0.00,,,0.00,Weather View 32 v70,2013-06-29 10:26:00,
2013-06-29 03:31:00,63.0,0.0,29.85,WNW,292,0.0,0.0,0,0.00,,,0.00,Weather View 32 v70,2013-06-29 10:31:00,
2013-06-29 03:36:00,63.0,0.0,29.85,WNW,292,0.0,0.0,0,0.00,,,0.00,Weather View 32 v70,2013-06-29 10:36:00,
2013-06-29 03:41:00,62.0,0.0,29.85,WNW,292,0.0,0.0,0,0.00,,,0.00,Weather View 32 v70,2013-06-29 10:41:00,
2013-06-29 03:46:00,62.0,0.0,29.85,WNW,292,0.0,0.0,0,0.00,,,0.00,Weather View 32 v70,2013-06-29 10:46:00,
2013-06-29 03:51:00,62.0,0.0,29.85,WNW,292,0.0,0.0,0,0.00,,,0.00,Weather View 32 v70,2013-06-29 10:51:00,
2013-06-29 03:56:00,62.0,0.0,29.85,WNW,292,0.0,0.0,0,0.00,,,0.00,Weather View 32 v70,2013-06-29 10:56:00,
2013-06-29 04:01:00,62.0,0.0,29.85,NW,315,0.0,0.0,0,0.00,,,0.00,Weather View 32 v70,2013-06-29 11:01:00,
2013-06-29 04:06:00,62.0,0.0,29.85,WNW,292,0.0,0.0,0,0.00,,,0.00,Weather View 32 v70,2013-06-29 11:06:00,
2013-06-29 04:11:00,62.0,0.0,29.86,NW,315,0.0,0.0,0,0.00,,,0.00,Weather View 32 v70,2013-06-29 11:11:00,
2013-06-29 04:16:00,62.0,0.0,29.85,NW,315,0.0,0.0,0,0.00,,,0.00,Weather View 32 v70,2013-06-29 11:16:00,
2013-06-29 04:21:00,62.0,0.0,29.85,NW,315,0.0,0.0,0,0.00,,,0.00,Weather View 32 v70,2013-06-29 11:21:00,
2013-06-29 04:26:00,62.0,0.0,29.85,NW,315,0.0,0.0,0,0.00,,,0.00,Weather View 32 v70,2013-06-29 11:26:00,
2013-06-29 04:31:00,62.0,0.0,29.84,NW,315,0.0,0.0,0,0.00,,,0.00,Weather View 32 v70,2013-06-29 11:31:00,
2013-06-29 04:36:00,62.0,0.0,29.84,NW,315,0.0,0.0,0,0.00,,,0.00,Weather View 32 v70,2013-06-29 11:36:00,
2013-06-29 04:41:00,62.0,0.0,29.83,NNW,338,0.0,0.0,0,0.00,,,0.00,Weather View 32 v70,2013-06-29 11:41:00,
2013-06-29 04:46:00,62.0,0.0,29.83,NW,315,0.0,0.0,0,0.00,,,0.00,Weather View 32 v70,2013-06-29 11:46:00,
2013-06-29 04:51:00,62.0,0.0,29.85,WNW,292,0.0,0.0,0,0.00,,,0.00,Weather View 32 v70,2013-06-29 11:51:00,
2013-06-29 04:56:00,62.0,0.0,29.85,West,270,0.0,0.0,0,0.00,,,0.00,Weather View 32 v70,2013-06-29 11:56:00,
2013-06-29 05:01:00,62.0,0.0,29.85,WNW,292,0.0,0.0,0,0.00,,,0.00,Weather View 32 v70,2013-06-29 12:01:00,
2013-06-29 05:06:00,62.0,0.0,29.86,WSW,248,0.0,0.0,0,0.00,,,0.00,Weather View 32 v70,2013-06-29 12:06:00,
2013-06-29 05:11:00,62.0,0.0,29.85,NNW,338,0.0,0.0,0,0.00,,,0.00,Weather View 32 v70,2013-06-29 12:11:00,
2013-06-29 05:16:00,62.0,0.0,29.85,NNW,338,0.0,0.0,0,0.00,,,0.00,Weather View 32 v70,2013-06-29 12:16:00,
2013-06-29 05:21:00,62.0,0.0,29.85,West,270,0.0,0.0,0,0.00,,,0.00,Weather View 32 v70,2013-06-29 12:21:00,
2013-06-29 05:26:00,62.0,0.0,29.85,NNW,338,0.0,0.0,0,0.00,,,0.00,Weather View 32 v70,2013-06-29 12:26:00,
2013-06-29 05:31:00,62.0,0.0,29.84,NNW,338,0.0,0.0,0,0.00,,,0.00,Weather View 32 v70,2013-06-29 12:31:00,
2013-06-29 05:36:00,62.0,0.0,29.84,NNW,338,0.0,0.0,0,0.00,,,0.00,Weather View 32 v70,2013-06-29 12:36:00,
2013-06-29 05:41:00,62.0,0.0,29.85,NW,315,0.0,0.0,0,0.00,,,0.00,Weather View 32 v70,2013-06-29 12:41:00,
2013-06-29 05:46:00,62.0,0.0,29.85,WNW,292,0.0,0.0,0,0.00,,,0.00,Weather View 32 v70,2013-06-29 12:46:00,
2013-06-29 05:51:00,62.0,0.0,29.85,NW,315,0.0,0.0,0,0.00,,,0.00,Weather View 32 v70,2013-06-29 12:51:00,
2013-06-29 05:56:00,62.0,0.0,29.84,NW,315,0.0,0.0,0,0.00,,,0.00,Weather View 32 v70,2013-06-29 12:56:00,
2013-06-29 06:01:00,62.0,0.0,29.84,NW,315,0.0,0.0,0,0.00,,,0.00,Weather View 32 v70,2013-06-29 13:01:00,
2013-06-29 06:06:00,62.0,0.0,29.84,WNW,292,0.0,0.0,0,0.00,,,0.00,Weather View 32 v70,2013-06-29 13:06:00,
2013-06-29 06:11:00,62.0,0.0,29.84,NW,315,0.0,0.0,0,0.00,,,0.00,Weather View 32 v70,2013-06-29 13:11:00,
2013-06-29 06:16:00,62.0,0.0,29.84,NNW,338,0.0,0.0,0,0.00,,,0.00,Weather View 32 v70,2013-06-29 13:16:00,
2013-06-29 06:21:00,62.0,0.0,29.84,NW,315,0.0,0.0,0,0.00,,,0.00,Weather View 32 v70,2013-06-29 13:21:00,
2013-06-29 06:26:00,62.0,0.0,29.83,WNW,292,0.0,0.0,0,0.00,,,0.00,Weather View 32 v70,2013-06-29 13:26:00,
2013-06-29 06:31:00,62.0,0.0,29.83,NW,315,0.0,0.0,0,0.00,,,0.00,Weather View 32 v70,2013-06-29 13:31:00,
2013-06-29 06:36:00,62.0,0.0,29.83,WNW,292,0.0,0.0,0,0.00,,,0.00,Weather View 32 v70,2013-06-29 13:36:00,
2013-06-29 06:41:00,62.0,0.0,29.83,NW,315,0.0,0.0,0,0.00,,,0.00,Weather View 32 v70,2013-06-29 13:41:00,
2013-06-29 06:46:00,62.0,0.0,29.84,West,270,0.0,0.0,0,0.00,,,0.00,Weather View 32 v70,2013-06-29 13:46:00,
2013-06-29 06:51:00,62.0,0.0,29.83,WNW,292,0.0,0.0,0,0.00,,,0.00,Weather View 32 v70,2013-06-29 13:51:00,
2013-06-29 06:56:00,62.0,0.0,29.83,WNW,292,0.0,0.0,0,0.00,,,0.00,Weather View 32 v70,2013-06-29 13:56:00,
2013-06-29 07:01:00,62.0,0.0,29.83,WNW,292,0.0,0.0,0,0.00,,,0.00,Weather View 32 v70,2013-06-29 14:01:00,
2013-06-29 07:06:00,62.0,0.0,29.84,West,270,0.0,0.0,0,0.00,,,0.00,Weather View 32 v70,2013-06-29 14:06:00,
2013-06-29 07:11:00,62.0,0.0,29.83,West,270,0.0,0.0,0,0.00,,,0.00,Weather View 32 v70,2013-06-29 14:11:00,
2013-06-29 07:16:00,62.0,0.0,29.83,West,270,0.0,0.0,0,0.00,,,0.00,Weather View 32 v70,2013-06-29 14:16:00,
2013-06-29 07:21:00,62.0,0.0,29.83,West,270,0.0,0.0,0,0.00,,,0.00,Weather View 32 v70,2013-06-29 14:21:00,
2013-06-29 07:26:00,62.0,0.0,29.83,West,270,0.0,0.0,0,0.00,,,0.00,Weather View 32 v70,2013-06-29 14:26:00,
2013-06-29 07:31:00,62.0,0.0,29.83,West,270,0.0,0.0,0,0.00,,,0.00,Weather View 32 v70,2013-06-29 14:31:00,
2013-06-29 07:36:00,62.0,0.0,29.83,West,270,0.0,0.0,0,0.00,,,0.00,Weather View 32 v70,2013-06-29 14:36:00,
2013-06-29 07:41:00,62.0,0.0,29.83,West,270,0.0,0.0,0,0.00,,,0.00,Weather View 32 v70,2013-06-29 14:41:00,
2013-06-29 07:46:00,63.0,0.0,29.83,West,270,0.0,0.0,0,0.00,,,0.00,Weather View 32 v70,2013-06-29 14:46:00,
2013-06-29 07:51:00,63.0,0.0,29.83,West,270,0.0,0.0,0,0.00,,,0.00,Weather View 32 v70,2013-06-29 14:51:00,
2013-06-29 07:56:00,63.0,0.0,29.82,NNW,338,0.0,0.0,0,0.00,,,0.00,Weather View 32 v70,2013-06-29 14:56:00,
2013-06-29 08:01:00,63.0,0.0,29.82,WNW,292,0.0,0.0,0,0.00,,,0.00,Weather View 32 v70,2013-06-29 15:01:00,
2013-06-29 08:06:00,63.0,0.0,29.83,SW,225,0.0,0.0,0,0.00,,,0.00,Weather View 32 v70,2013-06-29 15:06:00,
2013-06-29 08:11:00,63.0,0.0,29.83,SW,225,0.0,0.0,0,0.00,,,0.00,Weather View 32 v70,2013-06-29 15:11:00,
2013-06-29 08:16:00,63.0,0.0,29.83,South,180,0.0,0.0,0,0.00,,,0.00,Weather View 32 v70,2013-06-29 15:16:00,
2013-06-29 08:21:00,63.0,0.0,29.83,South,180,0.0,0.0,0,0.00,,,0.00,Weather View 32 v70,2013-06-29 15:21:00,
2013-06-29 08:26:00,63.0,0.0,29.83,South,180,0.0,0.0,0,0.00,,,0.00,Weather View 32 v70,2013-06-29 15:26:00,
2013-06-29 08:31:00,64.0,0.0,29.83,South,180,0.0,0.0,0,0.00,,,0.00,Weather View 32 v70,2013-06-29 15:31:00,
2013-06-29 08:36:00,64.0,0.0,29.84,SW,225,0.0,0.0,0,0.00,,,0.00,Weather View 32 v70,2013-06-29 15:36:00,
2013-06-29 08:41:00,64.0,0.0,29.84,SW,225,0.0,0.0,0,0.00,,,0.00,Weather View 32 v70,2013-06-29 15:41:00,
2013-06-29 08:46:00,64.0,0.0,29.84,SSW,202,0.0,0.0,0,0.00,,,0.00,Weather View 32 v70,2013-06-29 15:46:00,
2013-06-29 08:51:00,64.0,0.0,29.84,South,180,0.0,0.0,0,0.00,,,0.00,Weather View 32 v70,2013-06-29 15:51:00,
2013-06-29 08:56:00,65.0,0.0,29.84,East,90,0.0,0.0,0,0.00,,,0.00,Weather View 32 v70,2013-06-29 15:56:00,
2013-06-29 09:01:00,65.0,0.0,29.84,West,270,0.0,0.0,0,0.00,,,0.00,Weather View 32 v70,2013-06-29 16:01:00,
2013-06-29 09:06:00,65.0,0.0,29.84,SW,225,0.0,0.0,0,0.00,,,0.00,Weather View 32 v70,2013-06-29 16:06:00,
2013-06-29 09:11:00,65.0,0.0,29.84,SW,225,0.0,0.0,0,0.00,,,0.00,Weather View 32 v70,2013-06-29 16:11:00,
2013-06-29 09:16:00,65.0,0.0,29.84,SSW,202,0.0,0.0,0,0.00,,,0.00,Weather View 32 v70,2013-06-29 16:16:00,
2013-06-29 09:21:00,66.0,0.0,29.84,South,180,0.0,0.0,0,0.00,,,0.00,Weather View 32 v70,2013-06-29 16:21:00,
2013-06-29 09:26:00,66.0,0.0,29.84,South,180,0.0,0.0,0,0.00,,,0.00,Weather View 32 v70,2013-06-29 16:26:00,
2013-06-29 09:31:00,66.0,0.0,29.84,SW,225,0.0,0.0,0,0.00,,,0.00,Weather View 32 v70,2013-06-29 16:31:00,
2013-06-29 09:36:00,66.0,0.0,29.84,SSE,158,0.0,0.0,0,0.00,,,0.00,Weather View 32 v70,2013-06-29 16:36:00,
2013-06-29 09:41:00,66.0,0.0,29.83,South,180,0.0,0.0,0,0.00,,,0.00,Weather View 32 v70,2013-06-29 16:41:00,
2013-06-29 09:46:00,67.0,0.0,29.83,South,180,0.0,0.0,0,0.00,,,0.00,Weather View 32 v70,2013-06-29 16:46:00,
2013-06-29 09:51:00,67.0,0.0,29.83,SSE,158,0.0,0.0,0,0.00,,,0.00,Weather View 32 v70,2013-06-29 16:51:00,
2013-06-29 09:56:00,67.0,0.0,29.83,South,180,0.0,0.0,0,0.00,,,0.00,Weather View 32 v70,2013-06-29 16:56:00,
2013-06-29 10:01:00,67.0,0.0,29.83,North,0,0.0,0.0,0,0.00,,,0.00,Weather View 32 v70,2013-06-29 17:01:00,
2013-06-29 10:06:00,67.0,0.0,29.83,WNW,292,0.0,0.0,0,0.00,,,0.00,Weather View 32 v70,2013-06-29 17:06:00,
2013-06-29 10:11:00,67.0,0.0,29.83,SSE,158,0.0,0.0,0,0.00,,,0.00,Weather View 32 v70,2013-06-29 17:11:00,
2013-06-29 10:16:00,67.0,0.0,29.83,SW,225,0.0,0.0,0,0.00,,,0.00,Weather View 32 v70,2013-06-29 17:16:00,
2013-06-29 10:21:00,68.0,0.0,29.83,East,90,0.0,0.0,0,0.00,,,0.00,Weather View 32 v70,2013-06-29 17:21:00,
2013-06-29 10:26:00,68.0,0.0,29.83,South,180,0.0,0.0,0,0.00,,,0.00,Weather View 32 v70,2013-06-29 17:26:00,
2013-06-29 10:31:00,68.0,0.0,29.83,SSW,202,0.0,0.0,0,0.00,,,0.00,Weather View 32 v70,2013-06-29 17:31:00,
2013-06-29 10:36:00,68.0,0.0,29.84,South,180,0.0,0.0,0,0.00,,,0.00,Weather View 32 v70,2013-06-29 17:36:00,
2013-06-29 10:41:00,69.0,0.0,29.84,WSW,248,0.0,0.0,0,0.00,,,0.00,Weather View 32 v70,2013-06-29 17:41:00,
2013-06-29 10:46:00,69.0,0.0,29.84,South,180,0.0,0.0,0,0.00,,,0.00,Weather View 32 v70,2013-06-29 17:46:00,
2013-06-29 10:51:00,69.0,0.0,29.84,ENE,68,0.0,0.0,0,0.00,,,0.00,Weather View 32 v70,2013-06-29 17:51:00,
2013-06-29 10:56:00,69.0,0.0,29.84,SSW,202,0.0,0.0,0,0.00,,,0.00,Weather View 32 v70,2013-06-29 17:56:00,
2013-06-29 11:01:00,69.0,0.0,29.84,WSW,248,0.0,0.0,0,0.00,,,0.00,Weather View 32 v70,2013-06-29 18:01:00,
2013-06-29 11:06:00,69.0,0.0,29.84,SSE,158,0.0,0.0,0,0.00,,,0.00,Weather View 32 v70,2013-06-29 18:06:00,
2013-06-29 11:11:00,70.0,0.0,29.84,SW,225,0.0,0.0,0,0.00,,,0.00,Weather View 32 v70,2013-06-29 18:11:00,
2013-06-29 11:16:00,70.0,0.0,29.84,SSE,158,0.0,0.0,0,0.00,,,0.00,Weather View 32 v70,2013-06-29 18:16:00,
2013-06-29 11:21:00,70.0,0.0,29.85,ESE,112,0.0,0.0,0,0.00,,,0.00,Weather View 32 v70,2013-06-29 18:21:00,
2013-06-29 11:26:00,71.0,0.0,29.85,NNW,338,0.0,0.0,0,0.00,,,0.00,Weather View 32 v70,2013-06-29 18:26:00,
2013-06-29 11:31:00,71.0,0.0,29.85,NNW,338,0.0,2.0,0,0.00,,,0.00,Weather View 32 v70,2013-06-29 18:31:00,
2013-06-29 11:36:00,72.0,0.0,29.85,NNW,338,0.0,2.0,0,0.00,,,0.00,Weather View 32 v70,2013-06-29 18:36:00,
2013-06-29 11:41:00,72.0,0.0,29.85,SW,225,0.0,2.0,0,0.00,,,0.00,Weather View 32 v70,2013-06-29 18:41:00,
2013-06-29 11:46:00,72.0,0.0,29.85,SE,135,0.0,2.0,0,0.00,,,0.00,Weather View 32 v70,2013-06-29 18:46:00,
2013-06-29 11:51:00,73.0,0.0,29.84,WSW,248,0.0,2.0,0,0.00,,,0.00,Weather View 32 v70,2013-06-29 18:51:00,
2013-06-29 11:56:00,73.0,0.0,29.84,SE,135,0.0,3.0,0,0.00,,,0.00,Weather View 32 v70,2013-06-29 18:56:00,
2013-06-29 12:01:00,73.0,0.0,29.84,ESE,112,0.0,3.0,0,0.00,,,0.00,Weather View 32 v70,2013-06-29 19:01:00,
2013-06-29 12:06:00,74.0,0.0,29.84,NE,45,0.0,3.0,0,0.00,,,0.00,Weather View 32 v70,2013-06-29 19:06:00,
2013-06-29 12:11:00,74.0,0.0,29.84,ESE,112,0.0,3.0,0,0.00,,,0.00,Weather View 32 v70,2013-06-29 19:11:00,
2013-06-29 12:16:00,74.0,0.0,29.84,South,180,0.0,3.0,0,0.00,,,0.00,Weather View 32 v70,2013-06-29 19:16:00,
2013-06-29 12:21:00,75.0,0.0,29.84,South,180,0.0,3.0,0,0.00,,,0.00,Weather View 32 v70,2013-06-29 19:21:00,
2013-06-29 12:26:00,75.0,0.0,29.84,WSW,248,0.0,3.0,0,0.00,,,0.00,Weather View 32 v70,2013-06-29 19:26:00,
2013-06-29 12:31:00,76.0,0.0,29.84,SSW,202,0.0,3.0,0,0.00,,,0.00,Weather View 32 v70,2013-06-29 19:31:00,
2013-06-29 12:36:00,76.0,0.0,29.84,South,180,0.0,3.0,0,0.00,,,0.00,Weather View 32 v70,2013-06-29 19:36:00,
2013-06-29 12:41:00,76.0,0.0,29.84,West,270,0.0,3.0,0,0.00,,,0.00,Weather View 32 v70,2013-06-29 19:41:00,
2013-06-29 12:46:00,77.0,0.0,29.84,ESE,112,0.0,3.0,0,0.00,,,0.00,Weather View 32 v70,2013-06-29 19:46:00,
2013-06-29 12:51:00,77.0,0.0,29.84,NNW,338,0.0,3.0,0,0.00,,,0.00,Weather View 32 v70,2013-06-29 19:51:00,
2013-06-29 12:56:00,78.0,0.0,29.84,SW,225,0.0,1.0,0,0.00,,,0.00,Weather View 32 v70,2013-06-29 19:56:00,
2013-06-29 13:01:00,78.0,0.0,29.83,South,180,0.0,1.0,0,0.00,,,0.00,Weather View 32 v70,2013-06-29 20:01:00,
2013-06-29 13:06:00,79.0,0.0,29.83,WNW,292,0.0,1.0,0,0.00,,,0.00,Weather View 32 v70,2013-06-29 20:06:00,
2013-06-29 13:11:00,79.0,0.0,29.83,ESE,112,0.0,1.0,0,0.00,,,0.00,Weather View 32 v70,2013-06-29 20:11:00,
2013-06-29 13:16:00,79.0,0.0,29.83,WSW,248,0.0,1.0,0,0.00,,,0.00,Weather View 32 v70,2013-06-29 20:16:00,
2013-06-29 13:21:00,80.0,0.0,29.83,NW,315,0.0,1.0,0,0.00,,,0.00,Weather View 32 v70,2013-06-29 20:21:00,
2013-06-29 13:26:00,80.0,0.0,29.83,WNW,292,0.0,1.0,0,0.00,,,0.00,Weather View 32 v70,2013-06-29 20:26:00,
2013-06-29 13:31:00,80.0,0.0,29.83,NNW,338,0.0,1.0,0,0.00,,,0.00,Weather View 32 v70,2013-06-29 20:31:00,
2013-06-29 13:36:00,80.0,0.0,29.83,WSW,248,0.0,1.0,0,0.00,,,0.00,Weather View 32 v70,2013-06-29 20:36:00,
2013-06-29 13:41:00,80.0,0.0,29.83,WNW,292,0.0,1.0,0,0.00,,,0.00,Weather View 32 v70,2013-06-29 20:41:00,
2013-06-29 13:46:00,81.0,0.0,29.83,ESE,112,0.0,0.0,0,0.00,,,0.00,Weather View 32 v70,2013-06-29 20:46:00,
2013-06-29 13:51:00,81.0,0.0,29.82,SE,135,0.0,0.0,0,0.00,,,0.00,Weather View 32 v70,2013-06-29 20:51:00,
2013-06-29 13:56:00,81.0,0.0,29.82,NNW,338,0.0,0.0,0,0.00,,,0.00,Weather View 32 v70,2013-06-29 20:56:00,
2013-06-29 14:01:00,81.0,0.0,29.82,SW,225,0.0,0.0,0,0.00,,,0.00,Weather View 32 v70,2013-06-29 21:01:00,
2013-06-29 14:06:00,81.0,0.0,29.82,SSE,158,0.0,0.0,0,0.00,,,0.00,Weather View 32 v70,2013-06-29 21:06:00,
2013-06-29 14:11:00,81.0,0.0,29.82,WSW,248,0.0,0.0,0,0.00,,,0.00,Weather View 32 v70,2013-06-29 21:11:00,
2013-06-29 14:16:00,82.0,0.0,29.82,WSW,248,0.0,0.0,0,0.00,,,0.00,Weather View 32 v70,2013-06-29 21:16:00,
2013-06-29 14:21:00,82.0,0.0,29.82,SW,225,0.0,0.0,0,0.00,,,0.00,Weather View 32 v70,2013-06-29 21:21:00,
2013-06-29 14:26:00,82.0,0.0,29.82,WNW,292,0.0,0.0,0,0.00,,,0.00,Weather View 32 v70,2013-06-29 21:26:00,
2013-06-29 14:31:00,82.0,0.0,29.82,WSW,248,0.0,0.0,0,0.00,,,0.00,Weather View 32 v70,2013-06-29 21:31:00,
2013-06-29 14:36:00,82.0,0.0,29.82,NNE,22,0.0,0.0,0,0.00,,,0.00,Weather View 32 v70,2013-06-29 21:36:00,
2013-06-29 14:41:00,82.0,0.0,29.82,SE,135,0.0,0.0,0,0.00,,,0.00,Weather View 32 v70,2013-06-29 21:41:00,
2013-06-29 14:46:00,82.0,0.0,29.82,ESE,112,0.0,0.0,0,0.00,,,0.00,Weather View 32 v70,2013-06-29 21:46:00,
2013-06-29 14:51:00,82.0,0.0,29.82,SSW,202,0.0,2.0,0,0.00,,,0.00,Weather View 32 v70,2013-06-29 21:51:00,
2013-06-29 14:56:00,82.0,0.0,29.82,ENE,68,0.0,2.0,0,0.00,,,0.00,Weather View 32 v70,2013-06-29 21:56:00,
2013-06-29 15:01:00,83.0,0.0,29.82,South,180,0.0,2.0,0,0.00,,,0.00,Weather View 32 v70,2013-06-29 22:01:00,
2013-06-29 15:06:00,83.0,0.0,29.82,North,0,0.0,3.0,0,0.00,,,0.00,Weather View 32 v70,2013-06-29 22:06:00,
2013-06-29 15:11:00,83.0,0.0,29.82,SSW,202,0.0,3.0,0,0.00,,,0.00,Weather View 32 v70,2013-06-29 22:11:00,
2013-06-29 15:16:00,83.0,0.0,29.82,NW,315,0.0,3.0,0,0.00,,,0.00,Weather View 32 v70,2013-06-29 22:16:00,
2013-06-29 15:21:00,83.0,0.0,29.82,ESE,112,0.0,3.0,0,0.00,,,0.00,Weather View 32 v70,2013-06-29 22:21:00,
2013-06-29 15:26:00,83.0,0.0,29.82,WNW,292,0.0,3.0,0,0.00,,,0.00,Weather View 32 v70,2013-06-29 22:26:00,
2013-06-29 15:31:00,83.0,0.0,29.82,WNW,292,0.0,3.0,0,0.00,,,0.00,Weather View 32 v70,2013-06-29 22:31:00,
2013-06-29 15:36:00,83.0,0.0,29.82,WSW,248,0.0,3.0,0,0.00,,,0.00,Weather View 32 v70,2013-06-29 22:36:00,
2013-06-29 15:41:00,83.0,0.0,29.82,ENE,68,0.0,3.0,0,0.00,,,0.00,Weather View 32 v70,2013-06-29 22:41:00,
2013-06-29 15:46:00,82.0,0.0,29.82,SSE,158,0.0,3.0,0,0.00,,,0.00,Weather View 32 v70,2013-06-29 22:46:00,
2013-06-29 15:51:00,82.0,0.0,29.82,North,0,0.0,3.0,0,0.00,,,0.00,Weather View 32 v70,2013-06-29 22:51:00,
2013-06-29 15:56:00,82.0,0.0,29.82,WNW,292,0.0,3.0,0,0.00,,,0.00,Weather View 32 v70,2013-06-29 22:56:00,
2013-06-29 16:01:00,82.0,0.0,29.82,WSW,248,0.0,3.0,0,0.00,,,0.00,Weather View 32 v70,2013-06-29 23:01:00,
2013-06-29 16:06:00,82.0,0.0,29.82,WSW,248,0.0,1.0,0,0.00,,,0.00,Weather View 32 v70,2013-06-29 23:06:00,
2013-06-29 16:11:00,82.0,0.0,29.82,SSW,202,0.0,1.0,0,0.00,,,0.00,Weather View 32 v70,2013-06-29 23:11:00,
2013-06-29 16:16:00,82.0,0.0,29.82,WNW,292,0.0,1.0,0,0.00,,,0.00,Weather View 32 v70,2013-06-29 23:16:00,
2013-06-29 16:21:00,82.0,0.0,29.82,SSE,158,0.0,1.0,0,0.00,,,0.00,Weather View 32 v70,2013-06-29 23:21:00,
2013-06-29 16:26:00,82.0,0.0,29.81,WSW,248,0.0,1.0,0,0.00,,,0.00,Weather View 32 v70,2013-06-29 23:26:00,
2013-06-29 16:31:00,82.0,0.0,29.81,West,270,0.0,1.0,0,0.00,,,0.00,Weather View 32 v70,2013-06-29 23:31:00,
2013-06-29 16:36:00,82.0,0.0,29.81,ENE,68,0.0,1.0,0,0.00,,,0.00,Weather View 32 v70,2013-06-29 23:36:00,
2013-06-29 16:41:00,82.0,0.0,29.81,WSW,248,0.0,1.0,0,0.00,,,0.00,Weather View 32 v70,2013-06-29 23:41:00,
2013-06-29 16:46:00,82.0,0.0,29.81,NNW,338,0.0,1.0,0,0.00,,,0.00,Weather View 32 v70,2013-06-29 23:46:00,
2013-06-29 16:51:00,82.0,0.0,29.81,West,270,1.0,1.0,0,0.00,,,0.00,Weather View 32 v70,2013-06-29 23:51:00,
2013-06-29 16:56:00,82.0,0.0,29.81,SE,135,0.0,1.0,0,0.00,,,0.00,Weather View 32 v70,2013-06-29 23:56:00,
2013-06-29 17:01:00,82.0,0.0,29.81,South,180,0.0,1.0,0,0.00,,,0.00,Weather View 32 v70,2013-06-30 00:01:00,
2013-06-29 17:06:00,82.0,0.0,29.81,WSW,248,0.0,1.0,0,0.00,,,0.00,Weather View 32 v70,2013-06-30 00:06:00,
2013-06-29 17:11:00,82.0,0.0,29.81,NW,315,0.0,1.0,0,0.00,,,0.00,Weather View 32 v70,2013-06-30 00:11:00,
2013-06-29 17:16:00,82.0,0.0,29.81,NE,45,0.0,1.0,0,0.00,,,0.00,Weather View 32 v70,2013-06-30 00:16:00,
2013-06-29 17:21:00,81.0,0.0,29.81,East,90,0.0,1.0,0,0.00,,,0.00,Weather View 32 v70,2013-06-30 00:21:00,
2013-06-29 17:26:00,81.0,0.0,29.81,SSE,158,0.0,1.0,0,0.00,,,0.00,Weather View 32 v70,2013-06-30 00:26:00,
2013-06-29 17:31:00,81.0,0.0,29.80,South,180,0.0,1.0,0,0.00,,,0.00,Weather View 32 v70,2013-06-30 00:31:00,
2013-06-29 17:36:00,81.0,0.0,29.80,ESE,112,0.0,1.0,0,0.00,,,0.00,Weather View 32 v70,2013-06-30 00:36:00,
2013-06-29 17:41:00,81.0,0.0,29.80,WSW,248,0.0,1.0,0,0.00,,,0.00,Weather View 32 v70,2013-06-30 00:41:00,
2013-06-29 17:46:00,80.0,0.0,29.80,West,270,0.0,1.0,0,0.00,,,0.00,Weather View 32 v70,2013-06-30 00:46:00,
2013-06-29 17:51:00,80.0,0.0,29.80,NE,45,0.0,1.0,0,0.00,,,0.00,Weather View 32 v70,2013-06-30 00:51:00,
2013-06-29 17:56:00,80.0,0.0,29.80,West,270,0.0,1.0,0,0.00,,,0.00,Weather View 32 v70,2013-06-30 00:56:00,
2013-06-29 18:01:00,80.0,0.0,29.80,South,180,0.0,1.0,0,0.00,,,0.00,Weather View 32 v70,2013-06-30 01:01:00,
2013-06-29 18:06:00,79.0,0.0,29.80,South,180,0.0,1.0,0,0.00,,,0.00,Weather View 32 v70,2013-06-30 01:06:00,
2013-06-29 18:11:00,79.0,0.0,29.80,NNW,338,0.0,1.0,0,0.00,,,0.00,Weather View 32 v70,2013-06-30 01:11:00,
2013-06-29 18:16:00,79.0,0.0,29.80,West,270,0.0,2.0,0,0.00,,,0.00,Weather View 32 v70,2013-06-30 01:16:00,
2013-06-29 18:21:00,79.0,0.0,29.80,NW,315,0.0,2.0,0,0.00,,,0.00,Weather View 32 v70,2013-06-30 01:21:00,
2013-06-29 18:26:00,79.0,0.0,29.80,WNW,292,0.0,2.0,0,0.00,,,0.00,Weather View 32 v70,2013-06-30 01:26:00,
2013-06-29 18:31:00,79.0,0.0,29.80,WNW,292,0.0,2.0,0,0.00,,,0.00,Weather View 32 v70,2013-06-30 01:31:00,
2013-06-29 18:36:00,78.0,0.0,29.80,North,0,0.0,2.0,0,0.00,,,0.00,Weather View 32 v70,2013-06-30 01:36:00,
2013-06-29 18:41:00,78.0,0.0,29.80,NW,315,0.0,2.0,0,0.00,,,0.00,Weather View 32 v70,2013-06-30 01:41:00,
2013-06-29 18:46:00,78.0,0.0,29.80,NNE,22,0.0,2.0,0,0.00,,,0.00,Weather View 32 v70,2013-06-30 01:46:00,
2013-06-29 18:51:00,78.0,0.0,29.80,NE,45,0.0,2.0,0,0.00,,,0.00,Weather View 32 v70,2013-06-30 01:51:00,
2013-06-29 18:56:00,78.0,0.0,29.80,WNW,292,0.0,2.0,0,0.00,,,0.00,Weather View 32 v70,2013-06-30 01:56:00,
2013-06-29 19:01:00,78.0,0.0,29.80,North,0,0.0,2.0,0,0.00,,,0.00,Weather View 32 v70,2013-06-30 02:01:00,
2013-06-29 19:06:00,77.0,0.0,29.80,SSW,202,0.0,2.0,0,0.00,,,0.00,Weather View 32 v70,2013-06-30 02:06:00,
2013-06-29 19:11:00,77.0,0.0,29.80,NNW,338,0.0,2.0,0,0.00,,,0.00,Weather View 32 v70,2013-06-30 02:11:00,
2013-06-29 19:16:00,76.0,0.0,29.80,North,0,0.0,2.0,0,0.00,,,0.00,Weather View 32 v70,2013-06-30 02:16:00,
2013-06-29 19:21:00,76.0,0.0,29.80,NE,45,0.0,1.0,0,0.00,,,0.00,Weather View 32 v70,2013-06-30 02:21:00,
2013-06-29 19:26:00,76.0,0.0,29.80,NNE,22,0.0,1.0,0,0.00,,,0.00,Weather View 32 v70,2013-06-30 02:26:00,
2013-06-29 19:31:00,76.0,0.0,29.80,North,0,0.0,1.0,0,0.00,,,0.00,Weather View 32 v70,2013-06-30 02:31:00,
2013-06-29 19:36:00,75.0,0.0,29.79,NNW,338,0.0,1.0,0,0.00,,,0.00,Weather View 32 v70,2013-06-30 02:36:00,
2013-06-29 19:41:00,75.0,0.0,29.79,NNE,22,0.0,1.0,0,0.00,,,0.00,Weather View 32 v70,2013-06-30 02:41:00,
2013-06-29 19:46:00,75.0,0.0,29.79,NNE,22,0.0,1.0,0,0.00,,,0.00,Weather View 32 v70,2013-06-30 02:46:00,
2013-06-29 19:51:00,75.0,0.0,29.79,NNW,338,0.0,1.0,0,0.00,,,0.00,Weather View 32 v70,2013-06-30 02:51:00,
2013-06-29 19:56:00,74.0,0.0,29.79,North,0,0.0,1.0,0,0.00,,,0.00,Weather View 32 v70,2013-06-30 02:56:00,
2013-06-29 20:01:00,74.0,0.0,29.79,North,0,0.0,1.0,0,0.00,,,0.00,Weather View 32 v70,2013-06-30 03:01:00,
2013-06-29 20:06:00,74.0,0.0,29.79,North,0,0.0,1.0,0,0.00,,,0.00,Weather View 32 v70,2013-06-30 03:06:00,
2013-06-29 20:11:00,74.0,0.0,29.79,North,0,0.0,1.0,0,0.00,,,0.00,Weather View 32 v70,2013-06-30 03:11:00,
2013-06-29 20:16:00,74.0,0.0,29.79,NE,45,0.0,0.0,0,0.00,,,0.00,Weather View 32 v70,2013-06-30 03:16:00,
2013-06-29 20:21:00,73.0,0.0,29.79,NNE,22,0.0,0.0,0,0.00,,,0.00,Weather View 32 v70,2013-06-30 03:21:00,
2013-06-29 20:26:00,73.0,0.0,29.79,NNW,338,0.0,0.0,0,0.00,,,0.00,Weather View 32 v70,2013-06-30 03:26:00,
2013-06-29 20:31:00,73.0,0.0,29.79,WNW,292,0.0,0.0,0,0.00,,,0.00,Weather View 32 v70,2013-06-30 03:31:00,
2013-06-29 20:36:00,73.0,0.0,29.79,WNW,292,0.0,0.0,0,0.00,,,0.00,Weather View 32 v70,2013-06-30 03:36:00,
2013-06-29 20:41:00,73.0,0.0,29.79,NNW,338,0.0,0.0,0,0.00,,,0.00,Weather View 32 v70,2013-06-30 03:41:00,
2013-06-29 20:46:00,73.0,0.0,29.79,NNW,338,0.0,0.0,0,0.00,,,0.00,Weather View 32 v70,2013-06-30 03:46:00,
2013-06-29 20:51:00,72.0,0.0,29.79,North,0,0.0,0.0,0,0.00,,,0.00,Weather View 32 v70,2013-06-30 03:51:00,
2013-06-29 20:56:00,72.0,0.0,29.79,WNW,292,0.0,0.0,0,0.00,,,0.00,Weather View 32 v70,2013-06-30 03:56:00,
2013-06-29 21:01:00,72.0,0.0,29.79,NW,315,0.0,0.0,0,0.00,,,0.00,Weather View 32 v70,2013-06-30 04:01:00,
2013-06-29 21:06:00,72.0,0.0,29.79,North,0,0.0,0.0,0,0.00,,,0.00,Weather View 32 v70,2013-06-30 04:06:00,
2013-06-29 21:11:00,71.0,0.0,29.79,NNW,338,0.0,0.0,0,0.00,,,0.00,Weather View 32 v70,2013-06-30 04:11:00,
2013-06-29 21:16:00,71.0,0.0,29.79,North,0,0.0,0.0,0,0.00,,,0.00,Weather View 32 v70,2013-06-30 04:16:00,
2013-06-29 21:21:00,71.0,0.0,29.79,North,0,0.0,0.0,0,0.00,,,0.00,Weather View 32 v70,2013-06-30 04:21:00,
2013-06-29 21:26:00,71.0,0.0,29.79,NW,315,0.0,0.0,0,0.00,,,0.00,Weather View 32 v70,2013-06-30 04:26:00,
2013-06-29 21:31:00,70.0,0.0,29.79,WNW,292,0.0,0.0,0,0.00,,,0.00,Weather View 32 v70,2013-06-30 04:31:00,
2013-06-29 21:36:00,70.0,0.0,29.79,WNW,292,0.0,0.0,0,0.00,,,0.00,Weather View 32 v70,2013-06-30 04:36:00,
2013-06-29 21:41:00,70.0,0.0,29.79,NW,315,0.0,0.0,0,0.00,,,0.00,Weather View 32 v70,2013-06-30 04:41:00,
2013-06-29 21:46:00,70.0,0.0,29.79,NW,315,0.0,0.0,0,0.00,,,0.00,Weather View 32 v70,2013-06-30 04:46:00,
2013-06-29 21:51:00,69.0,0.0,29.79,WNW,292,0.0,0.0,0,0.00,,,0.00,Weather View 32 v70,2013-06-30 04:51:00,
2013-06-29 21:56:00,69.0,0.0,29.79,NNW,338,0.0,0.0,0,0.00,,,0.00,Weather View 32 v70,2013-06-30 04:56:00,
2013-06-29 22:01:00,69.0,0.0,29.79,NW,315,0.0,0.0,0,0.00,,,0.00,Weather View 32 v70,2013-06-30 05:01:00,
2013-06-29 22:06:00,69.0,0.0,29.79,NW,315,0.0,0.0,0,0.00,,,0.00,Weather View 32 v70,2013-06-30 05:06:00,
2013-06-29 22:11:00,68.0,0.0,29.79,NW,315,0.0,0.0,0,0.00,,,0.00,Weather View 32 v70,2013-06-30 05:11:00,
2013-06-29 22:16:00,68.0,0.0,29.79,NW,315,0.0,0.0,0,0.00,,,0.00,Weather View 32 v70,2013-06-30 05:16:00,
2013-06-29 22:21:00,68.0,0.0,29.79,NW,315,0.0,0.0,0,0.00,,,0.00,Weather View 32 v70,2013-06-30 05:21:00,
2013-06-29 22:26:00,68.0,0.0,29.79,NW,315,0.0,0.0,0,0.00,,,0.00,Weather View 32 v70,2013-06-30 05:26:00,
2013-06-29 22:31:00,68.0,0.0,29.79,WNW,292,0.0,0.0,0,0.00,,,0.00,Weather View 32 v70,2013-06-30 05:31:00,
2013-06-29 22:36:00,67.0,0.0,29.79,WNW,292,0.0,0.0,0,0.00,,,0.00,Weather View 32 v70,2013-06-30 05:36:00,
2013-06-29 22:41:00,67.0,0.0,29.78,WNW,292,0.0,0.0,0,0.00,,,0.00,Weather View 32 v70,2013-06-30 05:41:00,
2013-06-29 22:46:00,67.0,0.0,29.78,NW,315,0.0,0.0,0,0.00,,,0.00,Weather View 32 v70,2013-06-30 05:46:00,
2013-06-29 22:51:00,67.0,0.0,29.78,NW,315,0.0,0.0,0,0.00,,,0.00,Weather View 32 v70,2013-06-30 05:51:00,
2013-06-29 22:56:00,67.0,0.0,29.78,WNW,292,0.0,0.0,0,0.00,,,0.00,Weather View 32 v70,2013-06-30 05:56:00,
2013-06-29 23:01:00,67.0,0.0,29.78,NW,315,0.0,0.0,0,0.00,,,0.00,Weather View 32 v70,2013-06-30 06:01:00,
2013-06-29 23:06:00,66.0,0.0,29.78,NW,315,0.0,0.0,0,0.00,,,0.00,Weather View 32 v70,2013-06-30 06:06:00,
2013-06-29 23:11:00,66.0,0.0,29.78,NW,315,0.0,0.0,0,0.00,,,0.00,Weather View 32 v70,2013-06-30 06:11:00,
2013-06-29 23:16:00,66.0,0.0,29.78,NNW,338,0.0,0.0,0,0.00,,,0.00,Weather View 32 v70,2013-06-30 06:16:00,
2013-06-29 23:21:00,66.0,0.0,29.78,NW,315,0.0,0.0,0,0.00,,,0.00,Weather View 32 v70,2013-06-30 06:21:00,
2013-06-29 23:26:00,66.0,0.0,29.78,NW,315,0.0,0.0,0,0.00,,,0.00,Weather View 32 v70,2013-06-30 06:26:00,
2013-06-29 23:31:00,66.0,0.0,29.78,WNW,292,0.0,0.0,0,0.00,,,0.00,Weather View 32 v70,2013-06-30 06:31:00,
2013-06-29 23:36:00,66.0,0.0,29.78,WNW,292,0.0,0.0,0,0.00,,,0.00,Weather View 32 v70,2013-06-30 06:36:00,
2013-06-29 23:41:00,65.0,0.0,29.78,NW,315,0.0,0.0,0,0.00,,,0.00,Weather View 32 v70,2013-06-30 06:41:00,
2013-06-29 23:46:00,65.0,0.0,29.78,NW,315,0.0,0.0,0,0.00,,,0.00,Weather View 32 v70,2013-06-30 06:46:00,
2013-06-29 23:51:00,65.0,0.0,29.78,WNW,292,0.0,0.0,0,0.00,,,0.00,Weather View 32 v70,2013-06-30 06:51:00,
2013-06-29 23:56:00,65.0,0.0,29.78,NW,315,0.0,0.0,0,0.00,,,0.00,Weather View 32 v70,2013-06-30 06:56:00,